TimeCST,TemperatureF,Dew PointF,Humidity,Sea Level PressureIn,VisibilityMPH,Wind Direction,Wind SpeedMPH,Gust SpeedMPH,PrecipitationIn,Events,Conditions,WindDirDegrees,DateUTC
12:53 AM,10.9,1.0,64,30.49,10.0,NNW,16.1,-,N/A,,Clear,340,2012-02-11 06:53:00
1:53 AM,9.0,-0.0,67,30.52,10.0,NNW,13.8,-,N/A,,Clear,330,2012-02-11 07:53:00
2:53 AM,8.1,-0.0,70,30.53,10.0,NW,11.5,-,N/A,,Clear,310,2012-02-11 08:53:00
3:53 AM,8.1,-0.0,70,30.54,10.0,NW,12.7,-,N/A,,Clear,310,2012-02-11 09:53:00
4:53 AM,7.0,-0.9,70,30.56,10.0,NW,16.1,-,N/A,,Clear,320,2012-02-11 10:53:00
5:53 AM,7.0,-2.0,67,30.58,10.0,NW,15.0,-,N/A,,Clear,310,2012-02-11 11:53:00
6:53 AM,6.1,-2.9,67,30.60,10.0,NW,12.7,-,N/A,,Clear,310,2012-02-11 12:53:00
7:53 AM,7.0,-2.0,67,30.63,10.0,NW,16.1,-,N/A,,Clear,320,2012-02-11 13:53:00
8:53 AM,9.0,-2.0,61,30.65,10.0,NW,17.3,-,N/A,,Clear,310,2012-02-11 14:53:00
9:53 AM,12.0,-0.0,59,30.67,10.0,NW,16.1,-,N/A,,Clear,320,2012-02-11 15:53:00
10:53 AM,15.1,1.0,54,30.69,10.0,NNW,18.4,26.5,N/A,,Clear,330,2012-02-11 16:53:00
11:53 AM,17.1,3.0,54,30.68,10.0,NW,21.9,26.5,N/A,,Clear,320,2012-02-11 17:53:00
12:53 PM,18.0,3.0,52,30.66,10.0,WNW,18.4,27.6,N/A,,Clear,290,2012-02-11 18:53:00
1:53 PM,19.9,3.9,50,30.63,10.0,NW,18.4,26.5,N/A,,Clear,320,2012-02-11 19:53:00
2:53 PM,21.0,3.9,48,30.63,10.0,WNW,18.4,25.3,N/A,,Clear,300,2012-02-11 20:53:00
3:53 PM,21.0,3.9,48,30.62,10.0,WNW,17.3,-,N/A,,Clear,290,2012-02-11 21:53:00
4:53 PM,19.9,6.1,55,30.61,10.0,West,15.0,-,N/A,,Clear,280,2012-02-11 22:53:00
5:53 PM,17.1,3.9,56,30.61,10.0,West,15.0,-,N/A,,Clear,280,2012-02-11 23:53:00
6:53 PM,15.1,3.9,61,30.61,10.0,West,15.0,24.2,N/A,,Clear,270,2012-02-12 00:53:00
7:53 PM,14.0,3.9,64,30.60,10.0,West,15.0,-,N/A,,Clear,280,2012-02-12 01:53:00
8:53 PM,12.9,3.0,65,30.61,10.0,West,15.0,-,N/A,,Clear,280,2012-02-12 02:53:00
9:53 PM,12.9,3.0,65,30.61,10.0,WNW,13.8,-,N/A,,Clear,290,2012-02-12 03:53:00
10:53 PM,12.0,3.0,67,30.60,10.0,West,13.8,-,N/A,,Clear,280,2012-02-12 04:53:00
11:53 PM,10.9,1.9,67,30.58,10.0,WNW,12.7,-,N/A,,Clear,290,2012-02-12 05:53:00